Home   Weather   Olsztyn   Past weeks

Flag for Poland Past Weather in Olsztyn, Poland — Yesterday and Last 2 Weeks

Now
57 °F

Refreshingly cool.


Feels Like: 57 °F
Forecast: 41 / 62 °F
Wind: 3 mph from Southeast

Location: Ketrzyn

Current Time: Sep 27, 2016 at 2:11:58 PM

Latest Report: Sep 27, 2016 at 1:00 PM


Visibility: 19 mi

Pressure: 30.40 "Hg

Humidity: 56%

Dew Point: 42 °F

Location of OlsztynLocation

Past Weather in Olsztyn — Graph

°F

Olsztyn Temperature Yesterday

Maximum temperature yesterday: 58 °F (at 3:00 PM)
Minimum temperature yesterday: 43 °F (at 6:00 AM)
Average temperature yesterday: 49 °F

High & Low Weather Summary for the Past Weeks

 TemperatureHumidityPressure
High78 °F (Sep 12, 3:00 PM)99% (Sep 13, 6:00 AM)30.41 "Hg (Sep 13, 6:00 AM)
Low38 °F (Sep 27, 5:00 AM)36% (Sep 13, 2:00 PM)29.98 "Hg (Sep 16, 4:00 PM)
Average54 °F80%30.14 "Hg
* Reported Sep 12 12:00 PM — Sep 27 12:00 PM, Olsztyn, Weather by CustomWeather, © 2016

Note: Actual official high and low records may vary slightly from our data, if they occured in-between our weather recording intervals... More about our weather records

Advertising

Olsztyn Weather History for the Previous 24 Hours

Scroll right to see more
 ConditionsComfort  
Time TempWeatherWind HumidityBarometerVisibility
12:00 PM
Tue, Sep 27
54 °FCool.2 mph60%30.40 "Hg19 mi
11:00 AM52 °FCool.2 mph70%30.41 "Hg19 mi
10:00 AM49 °FCool.2 mph80%30.41 "Hg11 mi
9:00 AM47 °FFog.2 mph85%30.40 "Hg6 mi
8:00 AM41 °FQuite cool.No wind94%30.41 "Hg5 mi
7:00 AM38 °FChilly.1 mph96%30.40 "Hg8 mi
6:00 AM38 °FChilly.2 mph94%30.39 "Hg7 mi
5:00 AM38 °FChilly.1 mph94%30.38 "Hg9 mi
4:00 AM40 °FChilly.2 mph94%30.37 "Hg9 mi
3:00 AM40 °FQuite cool.1 mph91%30.37 "Hg9 mi
2:00 AM42 °FQuite cool.2 mph88%30.38 "Hg15 mi
1:00 AM42 °FQuite cool.2 mph87%30.37 "Hg12 mi
12:00 AM43 °FQuite cool.2 mph86%30.37 "Hg15 mi
11:00 PM
Mon, Sep 26
44 °FQuite cool.3 mph83%30.37 "Hg14 mi
10:00 PM45 °FCool.2 mph83%30.37 "Hg7 mi
9:00 PM46 °FCool.2 mph81%30.37 "Hg18 mi
8:00 PM49 °FCool.5 mph76%30.35 "Hg16 mi
7:00 PM51 °FFog.2 mph71%30.34 "Hg2 mi
6:00 PM54 °FCool.1 mph62%30.32 "Hg17 mi
5:00 PM57 °FRefreshingly cool.2 mph55%30.31 "Hg19 mi
4:00 PM58 °FRefreshingly cool.3 mph52%30.32 "Hg22 mi
3:00 PM58 °FRefreshingly cool.3 mph54%30.32 "Hg19 mi
2:00 PM57 °FRefreshingly cool.3 mph54%30.32 "Hg17 mi
Weather by CustomWeather, © 2016

See weather overviewHow to use our weather pages